Regional Weather Roundup
Issued by NWS

Home | Current Version | Previous Version | Graphics & Text | Print | Product List | Glossary On
Versions: 1 2 3 4 5 6 7 8 9 10 11 12 13 14 15 16 17 18 19 20 21 22 23 24 25 26 27 28 29 30 31 32 33 34 35 36 37 38 39 40 41 42 43 44 45 46 47 48 49 50
000
ASUS43 KMKX 182021
RWRWI

WISCONSIN REGIONAL WEATHER ROUNDUP
NATIONAL WEATHER SERVICE MILWAUKEE/SULLIVAN WI
200 PM CST SAT FEB 18 2017

NOTE: "FAIR" INDICATES FEW OR NO CLOUDS BELOW 12,000 FEET WITH NO
SIGNIFICANT WEATHER AND/OR OBSTRUCTIONS TO VISIBILITY.

WIZ001-002-006>008-014>016-023>028-182100-
NORTHWEST WISCONSIN

CITY           SKY/WX    TMP DP  RH WIND       PRES   REMARKS
SUPERIOR ARPT  SUNNY     55  33  44 W13       29.67F
ASHLAND        SUNNY     53  32  44 W14       29.67R
HAYWARD        MOSUNNY   53  29  39 VRB7      29.71R
SIREN          MOSUNNY   53  33  46 SW10      29.73S
CUMBERLAND     MOSUNNY   46  34  61 SW9       29.74S
RICE LAKE      MOSUNNY   49  34  56 CALM      29.76S
CHETEK         MOSUNNY   51  33  49 CALM      29.75S
LADYSMITH      SUNNY     54  29  38 W10       29.73S
EAU CLAIRE     MOSUNNY   50  34  54 W9        29.75F
MENOMONIE      MOSUNNY   53  35  49 SW7       29.77S
NEW RICHMOND   PTSUNNY   52  33  49 SW6       29.77S
OSCEOLA        PTSUNNY   55  36  48 SW5       29.79S
$$

WIZ003>005-009-010-017-018-182100-
NORTH CENTRAL WISCONSIN

CITY           SKY/WX    TMP DP  RH WIND       PRES   REMARKS
MANITOWISH WTR SUNNY     53  27  36 W10G16    29.65R
ARBOR VITAE    SUNNY     55  27  34 W9        29.66S
WOODRUFF       SUNNY     55  27  34 W9        29.66S
RHINELANDER    MOSUNNY   51  27  39 W13       29.67R
EAGLE RIVER    SUNNY     54  23  30 W13G18    29.64R
LAND O LAKES   SUNNY     56  22  26 W12G18    29.64S
PHILLIPS       MOSUNNY   55  26  32 W5        29.68S
TOMAHAWK       MOSUNNY   55  23  29 W12G21    29.68S
MEDFORD        SUNNY     45  32  60 SW7       29.72R
MERRILL        NOT AVBL
$$

WIZ029-030-035-036-043>047-182100-
CENTRAL WISCONSIN

CITY           SKY/WX    TMP DP  RH WIND       PRES   REMARKS
WAUSAU         SUNNY     49  33  54 SW6       29.70R
MOSINEE        PTSUNNY   45  34  65 SW13      29.73S
MARSHFIELD     MOSUNNY   49  32  52 W10       29.72S
STEVENS POINT  MOSUNNY   49  31  51 W9        29.73S
WAUPACA        MOSUNNY   58  32  36 CALM      29.71S
WAUTOMA        CLOUDY    57  34  41 W8        29.73S
WISC RAPIDS    MOSUNNY   54  32  43 NW7       29.74S
CAMP DOUGLAS   PTSUNNY   59  36  41 NW5       29.74S
$$

WIZ011>013-019>022-031-037>040-048>050-182100-
NORTHEAST WISCONSIN

CITY           SKY/WX    TMP DP  RH WIND       PRES   REMARKS
ANTIGO         SUNNY     52  26  36 W13       29.68R
SHAWANO        SUNNY     57  32  38 W8        29.68S
OCONTO         SUNNY     58  34  40 SW13      29.64S
STURGEON BAY   CLOUDY    56  38  50 SW15      29.65S
GREEN BAY      SUNNY     57  41  55 W10       29.68S
MANITOWOC      SUNNY     56  40  55 MISG      29.68S
APPLETON       MOSUNNY   55  34  44 W12       29.68F
CLINTONVILLE   SUNNY     52  32  46 W9        29.69S
OSHKOSH        SUNNY     56  39  53 W7        29.70F
$$

WIZ032>034-041-042-053>061-182100-
SOUTHWEST WISCONSIN

CITY           SKY/WX    TMP DP  RH WIND       PRES   REMARKS
LA CROSSE      SUNNY     59  36  42 NW5       29.76F
SPARTA         SUNNY     60  35  39 W3        29.75F
VIROQUA        SUNNY     56  38  51 CALM      29.76S
BOSCOBEL       SUNNY     63  38  39 S5        29.74S
PRAIRIE DU CHI SUNNY     60  36  40 CALM      29.75S
PLATTEVILLE    SUNNY     59  42  52 W6        29.74F
$$

WIZ056-057-062-063-064-067-068-182100-
SOUTH CENTRAL WISCONSIN

CITY           SKY/WX    TMP DP  RH WIND       PRES   REMARKS
REEDSBURG      SUNNY     62  40  45 NW8       29.73R
BARABOO/DELLS  SUNNY     60  38  44 N7        29.73R
LONE ROCK      SUNNY     61  39  44 SW5       29.73F
MINERAL POINT  SUNNY     61  41  48 W5        29.74S
MADISON        PTSUNNY   61  40  45 W5        29.72S
MIDDLETON      SUNNY     63  40  43 NW3       29.73R
WATERTOWN      SUNNY     58  41  54 W6        29.71S
MONROE         SUNNY     63  37  39 CALM      29.72F
JANESVILLE     SUNNY     63  37  39 MISG      29.71F
$$

WIZ051-052-058>065-066-070>072-182100-
SOUTHEAST WISCONSIN

CITY           SKY/WX    TMP DP  RH WIND       PRES   REMARKS
MILWAUKEE      MOSUNNY   66  37  34 NW10      29.70S
WAUKESHA       SUNNY     57  37  47 W10       29.72S
MILWAUKEE/TIMM SUNNY     63  34  34 W6        29.70F
RACINE         SUNNY     65  37  35 W7        29.71S
KENOSHA        SUNNY     65  40  39 W6        29.70S
FOND DU LAC    SUNNY     58  39  49 W8        29.70F
SHEBOYGAN      SUNNY     59  41  51 NW10      29.68S
WEST BEND      SUNNY     59  39  47 W10       29.70S
JUNEAU         SUNNY     57  42  55 W7        29.72S
$$

LSZ147-162-182100-
LAKE SUPERIOR

STATION/POSITION TIME  TEMP    WIND        PRES    WAVE
                       AIR SEA DIR/SP/G            HT/PER
                 (UTC) (F)     (DEG/KT/KT) (MB)    (FT/S)
DEVILS ISLAND    2000   43     230/ 20/ 23 1003.9R
PORT WING        1930   52     250/ 11/ 19 1004.7S
SAXON HARBOR     1940   54     280/  8/ 15 1004.4R
$$

LMZ867-665-643>646-182100-
LAKE MICHIGAN

STATION/POSITION TIME  TEMP    WIND        PRES    WAVE
                       AIR SEA DIR/SP/G            HT/PER
                 (UTC) (F)     (DEG/KT/KT) (MB)    (FT/S)
CHAMBERS ISLAND  1940   52     170/  6/ 10 1002.7F
NORTHPORT PIER   1940   59     240/  5/ 15 1002.7S
SISTER BAY       1935   59     250/  9/ 12   N/A
KEWAUNEE LAKESHO 1954   56     270/ 11/ 15 1003.9F
SHEBOYGAN LAKESH 2000   59     300/ 11/ 12 1004.6R
PORT WASHINGTON  1940   62     310/  6/ 13 1006.1S
MILWAUKEE LAKESH 2000   61     280/  7/  9   N/A
KENOSHA   LAKESH 2000   64     270/  6/  8 1005.8
$$

TC  - TEMPERATURE IN CELSIUS
VSB - VISIBILITY IN STATUTE MILES
WCI - WIND CHILL INDEX
HX  - HEAT INDEX





USA.gov is the U.S. government's official web portal to all federal, state and local government web resources and services.